一网星座-0257星 (ONEWEB-0257 )

导读 | 星芒AI

ONEWEB-0257 是 OneWeb 卫星通信公司发射的低轨通信卫星之一,属于其全球宽带互联网星座计划。该卫星运行在约 1200 公里的近地轨道,采用先进通信技术,旨在为全球用户提供高速、低延迟的互联网服务。ONEWEB-0257 与星座中其他卫星协同工作,支持偏远和农村地区的网络接入,促进数字包容。该卫星由空中客车防务与航天公司制造,于 2023 年通过火箭成功部署。

基本信息
目录编号:
48975
目录名称:
ONEWEB-0257
国际标识:
2021-060J
轨道中心:
EARTH
卫星名称:
一网星座-0257星
卫星全名:
一网星座-0257星 (ONEWEB-0257 )
卫星状态:
在轨 (已飞行1628 天)
发射日期:
2021-07-01 UTC
国别 :
英国 (GB)
星等 :
--
轨道信息
数据来源 国际轨道数据 AOE轨道数据
星历时间 2025-12-15T03:26:35+0800
23小时前
查看轨道信息
2025-12-13T14:00:00+0800
2天前
查看轨道信息
半长轴 7575.889km 7575.889km
偏心率 0.0001853 0.000183
轨道倾角 87.905° 87.904°
近地点辐角 71.563° 74.874°
升交点赤经 265.484° 265.795°
平近点角 288.570° 94.858°
近地点 1196.35km 1196.367km
远地点 1199.158km 1199.141km
周期 109.373分钟 109.373分钟
每日圈数 13.165957 13.165957
详细信息
平衡模式:
三轴稳定
覆盖范围:
全球
运营商:
一网卫星公司
运营商所在国:
英国
制造商(研发单位):
一网卫星公司
制造商所在国:
英国
使用方式:
暂无
卫星简介
OneWeb卫星网络由648颗重约125公斤的微型卫星组成,运行在1200公里的轨道上。 每颗卫星都能够提供至少每秒8千兆位的吞吐量,以使用其高吞吐量的Ku频段有效载荷为家庭和移动平台提供互联网接入。该卫星仍在工作。
2D轨道图
3D轨道图
轨道高度分析图
轨道倾角分析图
轨道综合分析图
查看轨道综合分析图